| time (UTC) | temp F | wind direction | speed MPH | gust MPH | rain 1hr in | rain 24hr in | rain mn in | humidity % | barometer mb |
| 20260510214057 | 65 | 333 | 0.0 | 3.0 | 0.00 | 0.33 | 0.00 | 84 | 1012.2 |
| 20260510213558 | 64 | 333 | 1.0 | 3.0 | 0.00 | 0.33 | 0.00 | 84 | 1012.2 |
| 20260510213054 | 64 | 242 | 0.0 | 0.0 | 0.00 | 0.33 | 0.00 | 84 | 1012.0 |
| 20260510212557 | 64 | 0 | 0.0 | 3.0 | 0.00 | 0.33 | 0.00 | 84 | 1012.1 |
| 20260510212056 | 64 | 0 | 0.0 | 3.0 | 0.00 | 0.33 | 0.00 | 85 | 1012.1 |
| 20260510211557 | 63 | 236 | 0.0 | 3.0 | 0.00 | 0.33 | 0.00 | 86 | 1012.1 |
| 20260510211056 | 63 | 236 | 0.0 | 3.0 | 0.00 | 0.33 | 0.00 | 85 | 1012.1 |
| 20260510210556 | 63 | 236 | 1.0 | 3.0 | 0.00 | 0.33 | 0.00 | 86 | 1012.1 |
| 20260510210100 | 62 | 236 | 1.0 | 4.0 | 0.00 | 0.33 | 0.00 | 86 | 1012.1 |
| 20260510205601 | 62 | 245 | 1.0 | 4.0 | 0.00 | 0.34 | 0.00 | 85 | 1012.1 |
| 20260510205057 | 62 | 0 | 1.0 | 6.0 | 0.00 | 0.34 | 0.00 | 85 | 1012.1 |
| 20260510204610 | 62 | 178 | 2.0 | 6.0 | 0.00 | 0.34 | 0.00 | 86 | 1011.9 |
| 20260510204056 | 62 | 181 | 2.0 | 5.0 | 0.00 | 0.34 | 0.00 | 85 | 1012.0 |
| 20260510203558 | 62 | 151 | 2.0 | 5.0 | 0.00 | 0.34 | 0.00 | 86 | 1012.0 |
| 20260510203056 | 62 | 181 | 2.0 | 6.0 | 0.00 | 0.34 | 0.00 | 86 | 1012.0 |
| 20260510202557 | 62 | 186 | 2.0 | 6.0 | 0.00 | 0.34 | 0.00 | 86 | 1011.9 |
| 20260510202057 | 62 | 192 | 2.0 | 5.0 | 0.00 | 0.34 | 0.00 | 88 | 1011.9 |
| 20260510201555 | 61 | 181 | 1.0 | 5.0 | 0.00 | 0.34 | 0.00 | 88 | 1012.0 |
| 20260510201053 | 61 | 182 | 1.0 | 5.0 | 0.00 | 0.34 | 0.00 | 88 | 1011.9 |
| 20260510200555 | 60 | 182 | 1.0 | 5.0 | 0.00 | 0.34 | 0.00 | 88 | 1012.0 |
| 20260510200117 | 60 | 182 | 1.0 | 6.0 | 0.00 | 0.34 | 0.00 | 87 | 1012.1 |
| 20260510195557 | 61 | 188 | 2.0 | 7.0 | 0.00 | 0.43 | 0.00 | 87 | 1012.0 |
| 20260510195057 | 61 | 186 | 3.0 | 7.0 | 0.00 | 0.43 | 0.00 | 86 | 1012.1 |
| 20260510194600 | 61 | 198 | 1.0 | 8.0 | 0.00 | 0.43 | 0.00 | 85 | 1012.2 |
| 20260510194057 | 62 | 186 | 3.0 | 9.0 | 0.00 | 0.43 | 0.00 | 84 | 1012.2 |
| 20260510193559 | 63 | 196 | 2.0 | 9.0 | 0.00 | 0.43 | 0.00 | 83 | 1012.3 |
| 20260510193106 | 63 | 181 | 4.0 | 8.0 | 0.00 | 0.43 | 0.00 | 83 | 1012.3 |
| 20260510192601 | 63 | 194 | 4.0 | 9.0 | 0.00 | 0.43 | 0.00 | 83 | 1012.3 |
| 20260510192056 | 63 | 261 | 3.0 | 9.0 | 0.00 | 0.43 | 0.00 | 84 | 1012.3 |
| 20260510191607 | 62 | 222 | 4.0 | 9.0 | 0.00 | 0.43 | 0.00 | 84 | 1012.4 |
| 20260510191056 | 62 | 219 | 4.0 | 9.0 | 0.00 | 0.43 | 0.00 | 85 | 1012.5 |
| 20260510190556 | 61 | 189 | 4.0 | 9.0 | 0.00 | 0.43 | 0.00 | 85 | 1012.5 |
| 20260510190056 | 62 | 194 | 2.0 | 6.0 | 0.00 | 0.43 | 0.00 | 85 | 1012.6 |
| 20260510185553 | 62 | 197 | 2.0 | 6.0 | 0.00 | 0.54 | 0.00 | 84 | 1012.6 |
| 20260510185056 | 62 | 195 | 2.0 | 6.0 | 0.00 | 0.54 | 0.00 | 84 | 1012.5 |
| 20260510184556 | 62 | 176 | 2.0 | 6.0 | 0.00 | 0.54 | 0.00 | 84 | 1012.5 |
| 20260510184055 | 62 | 182 | 2.0 | 7.0 | 0.00 | 0.54 | 0.00 | 84 | 1012.7 |
| 20260510183556 | 63 | 180 | 2.0 | 8.0 | 0.00 | 0.54 | 0.00 | 84 | 1012.5 |
| 20260510183100 | 63 | 215 | 5.0 | 8.0 | 0.00 | 0.54 | 0.00 | 83 | 1012.5 |
| 20260510182557 | 63 | 158 | 2.0 | 7.0 | 0.00 | 0.54 | 0.00 | 83 | 1012.5 |
| 20260510182055 | 64 | 175 | 3.0 | 8.0 | 0.00 | 0.54 | 0.00 | 83 | 1012.5 |
| 20260510181555 | 64 | 233 | 1.0 | 9.0 | 0.00 | 0.54 | 0.00 | 85 | 1012.4 |
| 20260510181058 | 64 | 168 | 3.0 | 9.0 | 0.00 | 0.54 | 0.00 | 84 | 1012.5 |
| 20260510180555 | 64 | 242 | 4.0 | 10.0 | 0.00 | 0.54 | 0.00 | 87 | 1012.6 |
| 20260510180058 | 63 | 202 | 3.0 | 11.0 | 0.00 | 0.54 | 0.00 | 87 | 1012.9 |
| 20260510175556 | 62 | 208 | 5.0 | 11.0 | 0.00 | 0.54 | 0.00 | 85 | 1012.9 |
| 20260510175055 | 62 | 254 | 3.0 | 8.0 | 0.00 | 0.54 | 0.00 | 87 | 1012.9 |
| 20260510174558 | 62 | 182 | 5.0 | 9.0 | 0.00 | 0.54 | 0.00 | 87 | 1012.8 |
| 20260510174057 | 62 | 213 | 3.0 | 10.0 | 0.00 | 0.54 | 0.00 | 89 | 1012.8 |
| 20260510173556 | 61 | 225 | 2.0 | 11.0 | 0.00 | 0.54 | 0.00 | 89 | 1012.9 |
| 20260510173108 | 61 | 195 | 6.0 | 11.0 | 0.00 | 0.54 | 0.00 | 88 | 1012.7 |
| 20260510172557 | 61 | 163 | 4.0 | 9.0 | 0.00 | 0.54 | 0.00 | 89 | 1012.6 |
| 20260510172056 | 60 | 238 | 3.0 | 10.0 | 0.00 | 0.54 | 0.00 | 90 | 1012.8 |
| 20260510171559 | 60 | 290 | 2.0 | 10.0 | 0.00 | 0.54 | 0.00 | 89 | 1012.8 |
| 20260510171057 | 60 | 230 | 5.0 | 9.0 | 0.00 | 0.54 | 0.00 | 90 | 1012.6 |
| 20260510170556 | 60 | 0 | 3.0 | 13.0 | 0.00 | 0.54 | 0.00 | 90 | 1012.7 |
| 20260510170106 | 60 | 223 | 6.0 | 13.0 | 0.00 | 0.54 | 0.00 | 90 | 1012.8 |
| 20260510165559 | 60 | 183 | 4.0 | 13.0 | 0.00 | 0.54 | 0.00 | 91 | 1012.9 |
| 20260510165055 | 60 | 238 | 5.0 | 8.0 | 0.00 | 0.54 | 0.00 | 90 | 1012.8 |
| 20260510164556 | 59 | 200 | 3.0 | 6.0 | 0.00 | 0.54 | 0.00 | 90 | 1012.8 |
| 20260510164058 | 60 | 194 | 1.0 | 11.0 | 0.00 | 0.54 | 0.00 | 90 | 1012.8 |
| 20260510163557 | 60 | 213 | 2.0 | 11.0 | 0.00 | 0.54 | 0.00 | 90 | 1012.9 |
| 20260510163102 | 60 | 159 | 4.0 | 11.0 | 0.00 | 0.54 | 0.00 | 91 | 1012.8 |
| 20260510162558 | 60 | 275 | 5.0 | 11.0 | 0.00 | 0.54 | 0.00 | 90 | 1012.9 |
| 20260510162058 | 59 | 224 | 5.0 | 11.0 | 0.00 | 0.54 | 0.00 | 90 | 1012.9 |
| 20260510161559 | 59 | 243 | 5.0 | 11.0 | 0.00 | 0.54 | 0.00 | 90 | 1012.8 |
| 20260510161059 | 60 | 242 | 5.0 | 11.0 | 0.00 | 0.54 | 0.00 | 91 | 1012.8 |
| 20260510160600 | 60 | 169 | 6.0 | 9.0 | 0.00 | 0.54 | 0.00 | 90 | 1012.8 |
| 20260510160059 | 60 | 308 | 4.0 | 9.0 | 0.00 | 0.54 | 0.00 | 90 | 1012.7 |
| 20260510155559 | 59 | 0 | 2.0 | 9.0 | 0.00 | 0.54 | 0.00 | 91 | 1012.7 |
| 20260510155102 | 59 | 242 | 3.0 | 12.0 | 0.00 | 0.54 | 0.00 | 91 | 1012.8 |
| 20260510154603 | 59 | 229 | 4.0 | 12.0 | 0.00 | 0.54 | 0.00 | 91 | 1013.0 |
| 20260510154058 | 59 | 223 | 3.0 | 10.0 | 0.00 | 0.54 | 0.00 | 91 | 1013.0 |
| 20260510153556 | 59 | 213 | 4.0 | 10.0 | 0.00 | 0.54 | 0.00 | 92 | 1013.1 |
| 20260510153101 | 59 | 189 | 5.0 | 10.0 | 0.00 | 0.54 | 0.00 | 92 | 1013.2 |
| 20260510152603 | 59 | 235 | 1.0 | 6.0 | 0.00 | 0.54 | 0.00 | 94 | 1013.2 |
| 20260510152059 | 59 | 0 | 2.0 | 6.0 | 0.00 | 0.54 | 0.00 | 94 | 1013.2 |
| 20260510151602 | 58 | 0 | 0.0 | 6.0 | 0.00 | 0.54 | 0.00 | 96 | 1013.1 |
| 20260510151059 | 57 | 0 | 1.0 | 6.0 | 0.00 | 0.54 | 0.00 | 96 | 1013.2 |
| 20260510150559 | 57 | 231 | 2.0 | 4.0 | 0.00 | 0.54 | 0.00 | 96 | 1013.3 |
| 20260510150058 | 56 | 0 | 0.0 | 3.0 | 0.00 | 0.54 | 0.00 | 97 | 1013.3 |
| 20260510145558 | 56 | 0 | 1.0 | 3.0 | 0.00 | 0.54 | 0.00 | 97 | 1013.1 |
| 20260510145058 | 56 | 193 | 0.0 | 3.0 | 0.00 | 0.54 | 0.00 | 97 | 1013.1 |
| 20260510144559 | 55 | 0 | 0.0 | 5.0 | 0.00 | 0.54 | 0.00 | 97 | 1013.1 |
| 20260510144059 | 55 | 0 | 0.0 | 5.0 | 0.00 | 0.54 | 0.00 | 97 | 1013.0 |
| 20260510143559 | 54 | 163 | 1.0 | 5.0 | 0.00 | 0.54 | 0.00 | 97 | 1012.9 |
| 20260510143102 | 54 | 0 | 0.0 | 0.0 | 0.00 | 0.54 | 0.00 | 97 | 1012.9 |
| 20260510142600 | 54 | 0 | 0.0 | 0.0 | 0.00 | 0.54 | 0.00 | 97 | 1012.8 |
| 20260510142102 | 53 | 0 | 0.0 | 0.0 | 0.00 | 0.54 | 0.00 | 97 | 1012.8 |
| 20260510141604 | 53 | 0 | 0.0 | 3.0 | 0.00 | 0.54 | 0.00 | 97 | 1012.7 |
| 20260510141057 | 53 | 0 | 0.0 | 3.0 | 0.00 | 0.54 | 0.00 | 97 | 1012.8 |
| 20260510140556 | 52 | 0 | 0.0 | 3.0 | 0.00 | 0.54 | 0.00 | 97 | 1012.8 |
| 20260510140058 | 52 | 140 | 0.0 | 4.0 | 0.00 | 0.54 | 0.00 | 97 | 1012.9 |
| 20260510135600 | 52 | 0 | 0.0 | 4.0 | 0.00 | 0.54 | 0.00 | 97 | 1012.8 |
| 20260510135056 | 52 | 140 | 0.0 | 5.0 | 0.00 | 0.54 | 0.00 | 97 | 1013.0 |
| 20260510134610 | 52 | 125 | 2.0 | 7.0 | 0.00 | 0.54 | 0.00 | 97 | 1012.8 |
| 20260510134058 | 52 | 125 | 2.0 | 7.0 | 0.00 | 0.54 | 0.00 | 97 | 1012.7 |
| 20260510133555 | 53 | 178 | 2.0 | 7.0 | 0.00 | 0.54 | 0.00 | 97 | 1012.7 |
| 20260510133118 | 53 | 0 | 2.0 | 7.0 | 0.00 | 0.54 | 0.00 | 97 | 1012.7 |
| 20260510132555 | 53 | 105 | 2.0 | 7.0 | 0.00 | 0.54 | 0.00 | 97 | 1012.7 |
| 20260510132058 | 53 | 136 | 2.0 | 7.0 | 0.00 | 0.54 | 0.00 | 97 | 1012.8 |
| 20260510131605 | 53 | 146 | 2.0 | 6.0 | 0.00 | 0.54 | 0.00 | 97 | 1012.9 |
| 20260510131056 | 53 | 91 | 2.0 | 8.0 | 0.00 | 0.54 | 0.00 | 97 | 1012.7 |
| 20260510130556 | 53 | 146 | 0.0 | 8.0 | 0.00 | 0.54 | 0.00 | 97 | 1012.7 |
| 20260510130057 | 53 | 134 | 1.0 | 5.0 | 0.00 | 0.54 | 0.00 | 97 | 1012.7 |
| 20260510125555 | 53 | 0 | 1.0 | 4.0 | 0.00 | 0.54 | 0.00 | 97 | 1012.6 |
| 20260510125056 | 53 | 119 | 0.0 | 3.0 | 0.00 | 0.54 | 0.00 | 97 | 1012.5 |
| 20260510124600 | 53 | 119 | 0.0 | 3.0 | 0.00 | 0.54 | 0.00 | 98 | 1012.6 |
| 20260510124053 | 53 | 117 | 1.0 | 3.0 | 0.00 | 0.54 | 0.00 | 97 | 1012.4 |
| 20260510123556 | 53 | 123 | 0.0 | 3.0 | 0.00 | 0.54 | 0.00 | 98 | 1012.5 |
| 20260510123104 | 53 | 0 | 0.0 | 3.0 | 0.00 | 0.54 | 0.00 | 97 | 1012.4 |
| 20260510122554 | 53 | 0 | 0.0 | 7.0 | 0.00 | 0.54 | 0.00 | 97 | 1012.2 |
| 20260510122052 | 53 | 129 | 2.0 | 7.0 | 0.00 | 0.54 | 0.00 | 97 | 1011.9 |
| 20260510121557 | 53 | 161 | 0.0 | 5.0 | 0.00 | 0.54 | 0.00 | 97 | 1011.8 |
| 20260510121056 | 53 | 163 | 1.0 | 5.0 | 0.00 | 0.54 | 0.00 | 97 | 1012.0 |
| 20260510120556 | 53 | 160 | 1.0 | 4.0 | 0.00 | 0.54 | 0.00 | 97 | 1012.0 |
| 20260510120055 | 53 | 0 | 0.0 | 6.0 | 0.00 | 0.54 | 0.00 | 98 | 1012.0 |
| 20260510115558 | 53 | 0 | 0.0 | 6.0 | 0.00 | 0.54 | 0.00 | 97 | 1012.1 |
| 20260510115056 | 53 | 0 | 1.0 | 6.0 | 0.00 | 0.54 | 0.00 | 97 | 1012.0 |
| 20260510114554 | 53 | 123 | 1.0 | 4.0 | 0.00 | 0.54 | 0.00 | 97 | 1011.9 |
| 20260510114057 | 53 | 117 | 1.0 | 4.0 | 0.00 | 0.54 | 0.00 | 98 | 1011.8 |
| 20260510113557 | 53 | 216 | 0.0 | 5.0 | 0.00 | 0.54 | 0.00 | 97 | 1011.7 |
| 20260510113055 | 53 | 170 | 1.0 | 5.0 | 0.00 | 0.54 | 0.00 | 97 | 1011.7 |
| 20260510112553 | 53 | 182 | 0.0 | 4.0 | 0.00 | 0.54 | 0.00 | 97 | 1011.6 |
| 20260510112056 | 53 | 182 | 0.0 | 4.0 | 0.00 | 0.54 | 0.00 | 97 | 1011.7 |
| 20260510111602 | 53 | 192 | 1.0 | 4.0 | 0.00 | 0.54 | 0.00 | 97 | 1011.8 |
| 20260510111055 | 53 | 0 | 0.0 | 4.0 | 0.00 | 0.54 | 0.00 | 97 | 1011.6 |
| 20260510110556 | 53 | 0 | 1.0 | 6.0 | 0.00 | 0.54 | 0.00 | 97 | 1011.7 |
| 20260510110054 | 53 | 196 | 0.0 | 6.0 | 0.00 | 0.54 | 0.00 | 97 | 1011.7 |
| 20260510105556 | 53 | 199 | 1.0 | 4.0 | 0.00 | 0.54 | 0.00 | 98 | 1011.6 |
| 20260510105056 | 52 | 0 | 1.0 | 4.0 | 0.00 | 0.54 | 0.00 | 97 | 1011.7 |
| 20260510104556 | 52 | 0 | 0.0 | 2.0 | 0.00 | 0.54 | 0.00 | 97 | 1011.7 |
| 20260510104100 | 52 | 0 | 0.0 | 2.0 | 0.00 | 0.54 | 0.00 | 97 | 1011.7 |
| 20260510103558 | 51 | 0 | 0.0 | 1.0 | 0.00 | 0.54 | 0.00 | 97 | 1011.6 |
| 20260510103059 | 51 | 0 | 0.0 | 0.0 | 0.00 | 0.54 | 0.00 | 97 | 1011.6 |
| 20260510102556 | 51 | 0 | 0.0 | 0.0 | 0.00 | 0.54 | 0.00 | 97 | 1011.7 |
| 20260510102056 | 51 | 0 | 0.0 | 0.0 | 0.00 | 0.54 | 0.00 | 97 | 1011.5 |
| 20260510101557 | 51 | 0 | 0.0 | 0.0 | 0.00 | 0.54 | 0.00 | 97 | 1011.5 |
| 20260510101058 | 51 | 0.0 | 0.0 | 0.00 | 0.54 | 0.00 | 97 | 1011.4 | |
| 20260510100556 | 51 | 0.0 | 0.0 | 0.00 | 0.54 | 0.00 | 97 | 1011.5 | |
| 20260510100057 | 52 | 0.0 | 0.0 | 0.00 | 0.54 | 0.00 | 97 | 1011.4 | |
| 20260510095556 | 52 | 0.0 | 0.0 | 0.00 | 0.54 | 0.00 | 97 | 1011.5 | |
| 20260510095056 | 52 | 0.0 | 0.0 | 0.00 | 0.54 | 0.00 | 97 | 1011.7 | |
| 20260510094600 | 52 | 0.0 | 0.0 | 0.00 | 0.54 | 0.00 | 97 | 1011.7 | |
| 20260510094058 | 52 | 0.0 | 0.0 | 0.00 | 0.54 | 0.00 | 97 | 1011.6 | |
| 20260510093559 | 52 | 0.0 | 0.0 | 0.00 | 0.54 | 0.00 | 97 | 1011.6 | |
| 20260510093058 | 52 | 0.0 | 0.0 | 0.00 | 0.54 | 0.00 | 97 | 1011.9 | |
| 20260510092557 | 52 | 0.0 | 0.0 | 0.00 | 0.54 | 0.00 | 97 | 1011.7 | |
| 20260510092058 | 52 | 0.0 | 0.0 | 0.00 | 0.54 | 0.00 | 97 | 1011.8 | |
| 20260510091600 | 52 | 0.0 | 0.0 | 0.00 | 0.54 | 0.00 | 97 | 1011.8 | |
| 20260510091056 | 52 | 0.0 | 0.0 | 0.00 | 0.54 | 0.00 | 97 | 1011.8 | |
| 20260510090556 | 52 | 0.0 | 0.0 | 0.00 | 0.54 | 0.00 | 97 | 1011.7 | |
| 20260510090112 | 52 | 0.0 | 0.0 | 0.00 | 0.54 | 0.00 | 97 | 1011.7 | |
| 20260510085602 | 52 | 0.0 | 0.0 | 0.00 | 0.54 | 0.00 | 97 | 1011.8 | |
| 20260510085055 | 52 | 0.0 | 0.0 | 0.00 | 0.54 | 0.00 | 97 | 1011.7 | |
| 20260510084558 | 52 | 0.0 | 0.0 | 0.00 | 0.54 | 0.00 | 97 | 1011.8 | |
| 20260510084058 | 52 | 0.0 | 0.0 | 0.00 | 0.54 | 0.00 | 97 | 1011.9 | |
| 20260510083556 | 52 | 0.0 | 0.0 | 0.00 | 0.54 | 0.00 | 97 | 1011.6 | |
| 20260510083057 | 52 | 0.0 | 0.0 | 0.00 | 0.54 | 0.00 | 97 | 1011.6 | |
| 20260510082556 | 52 | 0.0 | 0.0 | 0.00 | 0.54 | 0.00 | 97 | 1011.2 | |
| 20260510082056 | 52 | 0.0 | 0.0 | 0.00 | 0.54 | 0.00 | 97 | 1011.0 | |
| 20260510081557 | 52 | 0.0 | 0.0 | 0.00 | 0.54 | 0.00 | 97 | 1010.9 | |
| 20260510081056 | 52 | 0.0 | 0.0 | 0.00 | 0.54 | 0.00 | 97 | 1010.9 | |
| 20260510080555 | 52 | 0.0 | 0.0 | 0.00 | 0.54 | 0.00 | 97 | 1010.9 | |
| 20260510080100 | 52 | 0.0 | 0.0 | 0.00 | 0.54 | 0.00 | 97 | 1010.8 | |
| 20260510075555 | 52 | 0.0 | 0.0 | 0.00 | 0.54 | 0.00 | 97 | 1010.6 | |
| 20260510075055 | 52 | 0.0 | 0.0 | 0.00 | 0.54 | 0.00 | 97 | 1010.7 | |
| 20260510074601 | 52 | 0.0 | 0.0 | 0.00 | 0.54 | 0.00 | 97 | 1010.8 | |
| 20260510074056 | 52 | 0.0 | 0.0 | 0.00 | 0.54 | 0.00 | 97 | 1010.9 | |
| 20260510073557 | 52 | 0.0 | 0.0 | 0.00 | 0.54 | 0.00 | 97 | 1011.0 | |
| 20260510073113 | 52 | 0.0 | 0.0 | 0.00 | 0.54 | 0.00 | 97 | 1010.9 | |
| 20260510072558 | 52 | 0.0 | 0.0 | 0.00 | 0.54 | 0.00 | 97 | 1010.9 | |
| 20260510072058 | 52 | 0.0 | 0.0 | 0.00 | 0.54 | 0.00 | 97 | 1010.9 | |
| 20260510071606 | 52 | 0.0 | 0.0 | 0.00 | 0.54 | 0.00 | 97 | 1010.9 | |
| 20260510071059 | 52 | 0.0 | 0.0 | 0.00 | 0.54 | 0.00 | 97 | 1010.9 | |
| 20260510070558 | 52 | 0.0 | 0.0 | 0.00 | 0.54 | 0.00 | 97 | 1010.9 | |
| 20260510070056 | 52 | 0.0 | 0.0 | 0.00 | 0.54 | 0.00 | 97 | 1010.9 | |
| 20260510065555 | 52 | 0.0 | 0.0 | 0.00 | 0.54 | 0.00 | 97 | 1011.0 | |
| 20260510065057 | 52 | 0.0 | 0.0 | 0.00 | 0.54 | 0.00 | 97 | 1011.0 | |
| 20260510064602 | 52 | 0.0 | 0.0 | 0.00 | 0.54 | 0.00 | 97 | 1010.9 | |
| 20260510064057 | 52 | 0.0 | 0.0 | 0.00 | 0.54 | 0.00 | 97 | 1011.0 | |
| 20260510063558 | 52 | 0.0 | 0.0 | 0.00 | 0.54 | 0.00 | 97 | 1010.9 | |
| 20260510063102 | 52 | 0.0 | 0.0 | 0.00 | 0.54 | 0.00 | 97 | 1010.9 | |
| 20260510062556 | 52 | 0.0 | 0.0 | 0.00 | 0.54 | 0.00 | 97 | 1010.7 | |
| 20260510062054 | 52 | 0.0 | 0.0 | 0.00 | 0.54 | 0.00 | 97 | 1010.7 | |
| 20260510061601 | 52 | 0.0 | 0.0 | 0.00 | 0.54 | 0.00 | 97 | 1010.7 | |
| 20260510061059 | 52 | 0.0 | 0.0 | 0.00 | 0.54 | 0.00 | 97 | 1010.6 | |
| 20260510060557 | 52 | 0.0 | 0.0 | 0.00 | 0.54 | 0.00 | 97 | 1010.7 | |
| 20260510060059 | 53 | 0.0 | 0.0 | 0.00 | 0.54 | 0.00 | 97 | 1010.6 | |
| 20260510055559 | 53 | 0.0 | 0.0 | 0.00 | 0.54 | 0.00 | 97 | 1010.7 | |
| 20260510055056 | 53 | 0.0 | 0.0 | 0.00 | 0.54 | 0.00 | 97 | 1010.8 | |
| 20260510054559 | 53 | 0.0 | 0.0 | 0.00 | 0.54 | 0.00 | 97 | 1010.8 | |
| 20260510054058 | 53 | 0.0 | 0.0 | 0.00 | 0.54 | 0.00 | 97 | 1010.8 | |
| 20260510053558 | 53 | 0.0 | 0.0 | 0.00 | 0.54 | 0.00 | 97 | 1010.7 | |
| 20260510053110 | 53 | 0.0 | 0.0 | 0.00 | 0.54 | 0.00 | 97 | 1010.9 | |
| 20260510052558 | 53 | 0.0 | 0.0 | 0.00 | 0.54 | 0.00 | 97 | 1011.0 | |
| 20260510052055 | 53 | 0.0 | 0.0 | 0.00 | 0.54 | 0.00 | 97 | 1011.0 | |
| 20260510051559 | 53 | 0.0 | 0.0 | 0.00 | 0.54 | 0.00 | 97 | 1011.0 | |
| 20260510051054 | 53 | 0.0 | 0.0 | 0.00 | 0.54 | 0.00 | 97 | 1010.9 | |
| 20260510050557 | 53 | 0.0 | 0.0 | 0.00 | 0.54 | 0.00 | 97 | 1010.9 | |
| 20260510050059 | 53 | 0.0 | 0.0 | 0.00 | 0.54 | 0.00 | 97 | 1011.1 | |
| 20260510045558 | 53 | 0.0 | 0.0 | 0.00 | 0.54 | 0.00 | 97 | 1011.0 | |
| 20260510045100 | 53 | 0.0 | 0.0 | 0.00 | 0.54 | 0.00 | 97 | 1011.1 | |
| 20260510044605 | 53 | 0.0 | 0.0 | 0.00 | 0.54 | 0.00 | 97 | 1011.0 | |
| 20260510044054 | 53 | 0.0 | 0.0 | 0.00 | 0.54 | 0.00 | 97 | 1010.9 | |
| 20260510043557 | 53 | 0.0 | 0.0 | 0.00 | 0.54 | 0.00 | 97 | 1011.1 | |
| 20260510043110 | 53 | 0.0 | 0.0 | 0.00 | 0.54 | 0.00 | 97 | 1011.1 | |
| 20260510042556 | 53 | 0.0 | 0.0 | 0.00 | 0.54 | 0.00 | 97 | 1010.9 | |
| 20260510042056 | 53 | 0.0 | 0.0 | 0.00 | 0.54 | 0.00 | 97 | 1010.8 | |
| 20260510041601 | 53 | 0.0 | 0.0 | 0.00 | 0.54 | 0.00 | 97 | 1010.8 | |
| 20260510041056 | 53 | 0.0 | 0.0 | 0.00 | 0.54 | 0.00 | 97 | 1010.8 | |
| 20260510040631 | 53 | 0.0 | 0.0 | 0.00 | 0.54 | 0.00 | 97 | 1010.8 | |
| 20260510040115 | 53 | 0.0 | 0.0 | 0.00 | 0.54 | 0.00 | 97 | 1010.7 | |
| 20260510035557 | 53 | 0.0 | 0.0 | 0.00 | 0.54 | 0.54 | 96 | 1010.7 | |
| 20260510035058 | 53 | 0.0 | 0.0 | 0.00 | 0.54 | 0.54 | 96 | 1010.6 | |
| 20260510034556 | 53 | 0.0 | 0.0 | 0.00 | 0.54 | 0.54 | 96 | 1010.6 | |
| 20260510034055 | 53 | 0.0 | 0.0 | 0.00 | 0.54 | 0.54 | 96 | 1010.6 | |
| 20260510033557 | 53 | 0.0 | 0.0 | 0.00 | 0.54 | 0.54 | 97 | 1010.6 | |
| 20260510033101 | 53 | 0.0 | 0.0 | 0.00 | 0.54 | 0.54 | 96 | 1010.8 | |
| 20260510032556 | 53 | 0.0 | 0.0 | 0.00 | 0.54 | 0.54 | 96 | 1010.7 | |
| 20260510032057 | 53 | 0.0 | 0.0 | 0.00 | 0.54 | 0.54 | 96 | 1010.6 | |
| 20260510031600 | 53 | 0.0 | 0.0 | 0.00 | 0.54 | 0.54 | 96 | 1010.5 | |
| 20260510031056 | 53 | 0.0 | 0.0 | 0.00 | 0.54 | 0.54 | 96 | 1010.7 | |
| 20260510030557 | 53 | 0.0 | 0.0 | 0.00 | 0.54 | 0.54 | 96 | 1010.8 | |
| 20260510030056 | 53 | 0.0 | 0.0 | 0.00 | 0.54 | 0.54 | 96 | 1010.8 | |
| 20260510025556 | 53 | 0.0 | 0.0 | 0.00 | 0.54 | 0.54 | 96 | 1011.0 | |
| 20260510025056 | 53 | 0.0 | 0.0 | 0.00 | 0.54 | 0.54 | 96 | 1010.9 | |
| 20260510024557 | 53 | 0.0 | 0.0 | 0.00 | 0.54 | 0.54 | 96 | 1010.9 | |
| 20260510024056 | 53 | 0.0 | 0.0 | 0.00 | 0.54 | 0.54 | 96 | 1010.9 | |
| 20260510023556 | 53 | 0.0 | 0.0 | 0.00 | 0.54 | 0.54 | 96 | 1010.9 | |
| 20260510023057 | 53 | 0.0 | 0.0 | 0.00 | 0.54 | 0.54 | 96 | 1010.8 | |
| 20260510022556 | 53 | 0.0 | 0.0 | 0.00 | 0.54 | 0.54 | 96 | 1010.9 | |
| 20260510022056 | 53 | 0.0 | 0.0 | 0.00 | 0.54 | 0.54 | 96 | 1010.9 | |
| 20260510021601 | 53 | 0.0 | 0.0 | 0.00 | 0.54 | 0.54 | 96 | 1010.9 | |
| 20260510021056 | 53 | 0.0 | 0.0 | 0.00 | 0.54 | 0.54 | 96 | 1010.8 | |
| 20260510020556 | 53 | 0.0 | 0.0 | 0.00 | 0.54 | 0.54 | 96 | 1010.6 | |
| 20260510020058 | 53 | 0.0 | 0.0 | 0.00 | 0.54 | 0.54 | 96 | 1010.6 | |
| 20260510015556 | 53 | 0.0 | 0.0 | 0.00 | 0.54 | 0.54 | 96 | 1010.9 | |
| 20260510015101 | 53 | 0.0 | 0.0 | 0.00 | 0.54 | 0.54 | 96 | 1010.9 | |
| 20260510014606 | 53 | 0.0 | 0.0 | 0.00 | 0.54 | 0.54 | 96 | 1010.8 | |
| 20260510014056 | 53 | 0.0 | 0.0 | 0.00 | 0.54 | 0.54 | 96 | 1010.7 | |
| 20260510013600 | 53 | 0.0 | 0.0 | 0.00 | 0.54 | 0.54 | 96 | 1010.7 | |
| 20260510013100 | 53 | 0.0 | 0.0 | 0.00 | 0.54 | 0.54 | 96 | 1010.5 | |
| 20260510012556 | 53 | 0.0 | 0.0 | 0.00 | 0.54 | 0.54 | 96 | 1010.6 | |
| 20260510012056 | 53 | 0.0 | 0.0 | 0.00 | 0.54 | 0.54 | 96 | 1010.6 | |
| 20260510011557 | 53 | 0.0 | 0.0 | 0.00 | 0.54 | 0.54 | 96 | 1010.8 | |
| 20260510011057 | 53 | 0.0 | 0.0 | 0.00 | 0.54 | 0.54 | 96 | 1010.6 | |
| 20260510010556 | 53 | 0.0 | 0.0 | 0.00 | 0.54 | 0.54 | 96 | 1010.3 | |
| 20260510010056 | 53 | 0.0 | 0.0 | 0.00 | 0.54 | 0.54 | 96 | 1010.6 | |
| 20260510005617 | 53 | 0.0 | 0.0 | 0.00 | 0.54 | 0.54 | 96 | 1010.6 | |
| 20260510005056 | 53 | 0.0 | 0.0 | 0.00 | 0.54 | 0.54 | 96 | 1010.4 | |
| 20260510004559 | 53 | 0.0 | 0.0 | 0.00 | 0.54 | 0.54 | 96 | 1010.3 | |
| 20260510004100 | 53 | 0.0 | 0.0 | 0.00 | 0.54 | 0.54 | 96 | 1010.4 | |
| 20260510003556 | 53 | 0.0 | 0.0 | 0.00 | 0.54 | 0.54 | 96 | 1010.5 | |
| 20260510003100 | 53 | 0.0 | 0.0 | 0.00 | 0.54 | 0.54 | 96 | 1010.3 | |
| 20260510002557 | 53 | 0.0 | 0.0 | 0.00 | 0.54 | 0.54 | 96 | 1010.3 | |
| 20260510002057 | 53 | 0.0 | 0.0 | 0.00 | 0.54 | 0.54 | 96 | 1010.3 | |
| 20260510001557 | 53 | 0.0 | 0.0 | 0.01 | 0.54 | 0.54 | 96 | 1010.1 | |
| 20260510001056 | 53 | 0.0 | 0.0 | 0.01 | 0.54 | 0.54 | 96 | 1010.1 | |
| 20260510000556 | 53 | 0.0 | 0.0 | 0.01 | 0.54 | 0.54 | 96 | 1010.1 | |
| 20260510000059 | 54 | 0.0 | 0.0 | 0.02 | 0.54 | 0.54 | 96 | 1010.2 | |
| 20260509235558 | 54 | 0.0 | 0.0 | 0.04 | 0.54 | 0.54 | 96 | 1010.0 | |
| 20260509235056 | 54 | 0.0 | 0.0 | 0.06 | 0.54 | 0.54 | 96 | 1009.7 | |
| 20260509234602 | 53 | 0.0 | 0.0 | 0.08 | 0.54 | 0.54 | 96 | 1009.8 | |
| 20260509234057 | 53 | 0.0 | 0.0 | 0.12 | 0.54 | 0.54 | 95 | 1009.5 | |
| 20260509233600 | 53 | 0.0 | 0.0 | 0.14 | 0.54 | 0.54 | 95 | 1009.5 | |
| 20260509233058 | 53 | 0.0 | 0.0 | 0.15 | 0.54 | 0.54 | 95 | 1009.5 | |
| 20260509232559 | 54 | 0.0 | 0.0 | 0.16 | 0.54 | 0.54 | 95 | 1010.1 | |
| 20260509232057 | 53 | 0.0 | 0.0 | 0.17 | 0.54 | 0.54 | 95 | 1010.2 | |
| 20260509231558 | 54 | 0.0 | 0.0 | 0.17 | 0.52 | 0.52 | 95 | 1010.4 | |
| 20260509231056 | 54 | 0.0 | 0.0 | 0.17 | 0.52 | 0.52 | 95 | 1010.3 | |
| 20260509230556 | 54 | 0.0 | 0.0 | 0.18 | 0.52 | 0.52 | 95 | 1010.5 | |
| 20260509230058 | 54 | 0.0 | 0.0 | 0.19 | 0.52 | 0.52 | 95 | 1010.7 | |
| 20260509225556 | 54 | 0.0 | 0.0 | 0.23 | 0.50 | 0.50 | 95 | 1010.8 | |
| 20260509225056 | 54 | 0.0 | 0.0 | 0.24 | 0.48 | 0.48 | 95 | 1011.0 | |
| 20260509224601 | 54 | 0.0 | 0.0 | 0.21 | 0.45 | 0.45 | 95 | 1011.1 | |
| 20260509224056 | 54 | 0.0 | 0.0 | 0.19 | 0.42 | 0.42 | 95 | 1011.1 | |
| 20260509223556 | 55 | 0.0 | 0.0 | 0.18 | 0.40 | 0.40 | 95 | 1010.9 | |
| 20260509223059 | 55 | 0.0 | 0.0 | 0.17 | 0.39 | 0.39 | 95 | 1010.9 | |
| 20260509222559 | 55 | 0.0 | 0.0 | 0.16 | 0.38 | 0.38 | 95 | 1010.8 | |
| 20260509222056 | 55 | 0.0 | 0.0 | 0.15 | 0.37 | 0.37 | 95 | 1011.0 | |
| 20260509221605 | 55 | 0.0 | 0.0 | 0.14 | 0.36 | 0.36 | 95 | 1010.9 | |
| 20260509221055 | 55 | 0.0 | 0.0 | 0.14 | 0.36 | 0.36 | 95 | 1010.9 | |
| 20260509220600 | 55 | 0.0 | 0.0 | 0.14 | 0.35 | 0.35 | 95 | 1010.8 | |
| 20260509220100 | 55 | 0.0 | 0.0 | 0.12 | 0.33 | 0.33 | 95 | 1011.0 | |
| 20260509215558 | 55 | 0.0 | 0.0 | 0.05 | 0.26 | 0.26 | 94 | 1011.2 | |
| 20260509215057 | 55 | 0.0 | 0.0 | 0.03 | 0.24 | 0.24 | 95 | 1011.2 | |
| 20260509214607 | 55 | 0.0 | 0.0 | 0.03 | 0.24 | 0.24 | 95 | 1011.2 |